Regional Weather Roundup
Issued by NWS

Home | Current Version | Previous Version | Graphics & Text | Print | Product List | Glossary On
Versions: 1 2 3 4 5 6 7 8 9 10 11 12 13 14 15 16 17 18 19 20 21 22 23 24 25 26 27 28 29 30 31 32 33 34 35 36 37 38 39 40 41 42 43 44 45 46 47 48 49 50
000
ASUS43 KLOT 281806
RWRIL

ILLINOIS REGIONAL WEATHER ROUNDUP
NATIONAL WEATHER SERVICE CHICAGO/ROMEOVILLE IL
100 PM CDT THU AUG 28 2014

NOTE: "FAIR" INDICATES FEW OR NO CLOUDS BELOW 12,000 FEET WITH NO
SIGNIFICANT WEATHER AND/OR OBSTRUCTIONS TO VISIBILITY.

* THESE STATIONS ARE NOT UNDER NWS QUALITY CONTROL. THEY ALSO MAY NOT
  REPORT WEATHER SUCH AS PRECIPITATION OR FOG.

ILZ001-002-007-009-015-016-024-281900-
NORTHWEST ILLINOIS

CITY           SKY/WX    TMP DP  RH WIND       PRES   REMARKS
MOLINE         RAIN      71  64  78 E10       30.06F
6HR MIN TEMP:  66; 6HR MAX TEMP:  73; 6HR PCP:  0.03;

STERLING*      PTSUNNY   75  64  69 SE7       30.09F
SAVANNA*       CLOUDY    74  60  62 SE5       30.09S
$$

ILZ003-004-008-010-011-017-018-281900-
NORTH CENTRAL ILLINOIS

CITY           SKY/WX    TMP DP  RH WIND       PRES   REMARKS
ROCKFORD       CLOUDY    75  59  57 E8        30.11F
6HR MIN TEMP:  64; 6HR MAX TEMP:  76;

FREEPORT*      CLOUDY    77  64  65 E10       30.12F
ROCHELLE*      PTSUNNY   75  58  54 SE7       30.10F
DE KALB*       PTSUNNY   74  57  55 E8        30.11F
PERU*          PTSUNNY   79  62  57 SE9       30.08F HX  80
$$

ILZ005-006-012>014-019>023-281900-
NORTHEAST ILLINOIS

CITY           SKY/WX    TMP DP  RH WIND       PRES   REMARKS
CHICAGO-OHARE  MOSUNNY   76  52  43 NE7       30.11F
6HR MIN TEMP:  67; 6HR MAX TEMP:  77;

CHICAGO-MIDWAY PTSUNNY   77  59  53 VRB6      30.10F
6HR MIN TEMP:  69; 6HR MAX TEMP:  77;

AURORA         MOSUNNY   79  58  48 E8        30.10F HX  80
6HR MIN TEMP:  61; 6HR MAX TEMP:  79;

LANSING*       MOSUNNY   76  60  56 CALM      30.11S
JOLIET*        PTSUNNY   77  57  49 E6        30.10F
WAUKEGAN       SUNNY     71  52  50 NE9       30.13F
6HR MIN TEMP:  64; 6HR MAX TEMP:  71;

DUPAGE AIRPORT MOSUNNY   78  54  43 E8        30.10F
6HR MIN TEMP:  66; 6HR MAX TEMP:  78;

KANKAKEE*      MOSUNNY   78  64  63 E7        30.09F
WHEELING       SUNNY     75  55  49 NE8       30.13F
6HR MIN TEMP:  67; 6HR MAX TEMP:  75;

MORRIS*        MOSUNNY   78  64  61 SE7       30.09F HX  80
ROMEOVILLE*    PTSUNNY   77  57  50 NE6       30.09F
NORTHERLY ISL    N/A     71  57  61 NE8         N/A
$$

LMZ740>746-281900-
SOUTHERN LAKE MICHIGAN

STATION/POSITION SKY/WX   TEMP    WIND        PRES    VSBY  WAVE
                          AIR SEA DIR/SP/G                  HT/PER
                          (F)     (DEG/KT/KT) (MB)    (MI)  (FT/S)
SOUTHERN BUOY              65 69   90/ 10/ 12 1020.8F
WAUKEGAN HARBOR            68      70/  5/  8   N/A
HARRISON CRIB              67      50/  8/ 10   N/A
BURNHAM HARBOR             70      40/  8/  9   N/A
CALUMET HARBOR             69      10/  8/ 10 1018.6S
MICHIGAN CITY              68     360/  9/ 10   N/A
MICHIGAN CITY 6N           69 73   30/  8/ 10   N/A           2/ 4
ST. JOSEPH                 69 73  360/  8/ 10   N/A           1/ 4
$$

ILZ025>027-034>036-040-047-049-050-058-095>099-281900-
WEST-CENTRAL ILLINOIS

CITY           SKY/WX    TMP DP  RH WIND       PRES   REMARKS
QUINCY         PTSUNNY   83  73  72 SE8       30.00F HX  89
GALESBURG*     CLOUDY    77  68  74 E7        30.05F
MACOMB*        MOSUNNY   81  72  74 SE10      30.05F HX  85
JACKSONVILLE*  SUNNY     87  74  66 SE7       30.03F HX  95
PITTSFIELD*    MOSUNNY   86  72  62 S3        30.03F HX  92
$$

ILZ028>032-037-038-041>044-048-051>054-059>061-281900-
CENTRAL ILLINOIS

CITY           SKY/WX    TMP DP  RH WIND       PRES   REMARKS
PONTIAC        MOSUNNY   81  66  61 SE7       30.08F HX  83
DECATUR        SUNNY     82  71  69 E6        30.06F HX  86
PEORIA         CLOUDY    79  67  66 E9        30.05F HX  81
6HR MIN TEMP:  68; 6HR MAX TEMP:  79;

LACON*         CLOUDY    77  64  64 E7        30.06F
LINCOLN*       MOSUNNY   83  70  63 E8        30.02F HX  87
SPRINGFIELD    MOSUNNY   85  72  65 SE6       30.03F HX  91
6HR MIN TEMP:  70; 6HR MAX TEMP:  85;

TAYLORVILLE    SUNNY     82  73  74 SE7       30.04F HX  88
$$

ILZ033-039-045-046-055>057-062-063-281900-
EAST-CENTRAL ILLINOIS

CITY           SKY/WX    TMP DP  RH WIND       PRES   REMARKS
CHAMPAIGN      SUNNY     80  68  66 SE5       30.07F HX  83
DANVILLE*      SUNNY     80  67  65 E7        30.05F HX  82
RANTOUL*       SUNNY     82  62  50 SE6       30.08F HX  83
MATTOON        SUNNY     83  71  67 SE6       30.05F HX  87
PARIS*         MOSUNNY   80  68  67 NE3       30.07F HX  82
$$

ILZ079-100>102-281900-
SOUTHWEST ILLINOIS

CITY           SKY/WX    TMP DP  RH WIND       PRES   REMARKS
ALTON          MOSUNNY   86  73  66 VRB6      30.03F HX  93
BELLEVILLE     SUNNY     87  77  72 VRB3      30.01F HX  99
CAHOKIA*       SUNNY     88  73  62 CALM      30.01F HX  96
SPARTA*        SUNNY     86  75  71 SE3       30.03F HX  94
$$

ILZ064>066-069>071-074>076-080>082-084>086-088>090-092>094-281900-
SOUTH-CENTRAL ILLINOIS

CITY           SKY/WX    TMP DP  RH WIND       PRES   REMARKS
CARBONDALE     PTSUNNY   89  75  63 E5        30.01F THUNDER HX  99
6HR MIN TEMP:  73; 6HR MAX TEMP:  89;

CAIRO*         MOSUNNY   92  75  58 NW3       30.01F HX 103
EFFINGHAM*     PTSUNNY   85  70  61 E6        30.05S HX  90
MARION         PTSUNNY   90  75  62 SW5       30.02F HX 100
MT. VERNON     MOSUNNY   86  73  66 CALM      30.03F HX  93
SALEM*         SUNNY     87  76  68 CALM      30.03F HX  98
METROPOLIS*    SUNNY     91  73  55 CALM      30.00F HX  98
$$

ILZ067-068-072-073-078-083-087-091-281900-
SOUTHEAST ILLINOIS

CITY           SKY/WX    TMP DP  RH WIND       PRES   REMARKS
LAWRENCEVILLE  SUNNY     86  72  62 E5        30.04F HX  92
FLORA*         SUNNY     86  73  65 SE3       30.04F HX  93
FAIRFIELD*     SUNNY     88  79  74 SE3       30.02F HX 102
HARRISBURG*    SUNNY     89  73  57 CALM      30.02F HX  97
ROBINSON*      MOSUNNY   88  74  62 NE3       30.06F HX  96
CARMI*         PTSUNNY   89  76  66 CALM      30.02S HX 101
$$

ABBREVIATIONS USED IN REMARKS
   TC - TEMPERATURE IN CELSIUS
  WCI - WIND CHILL INDEX
   HX - HEAT INDEX
  VSB - VISIBILITY
$$



USA.gov is the U.S. government's official web portal to all federal, state and local government web resources and services.